Regional Weather Roundup
Issued by NWS

Home | Current Version | Previous Version | Text Only | Print | Product List | Glossary Off
Versions: 1 2 3 4 5 6 7 8 9 10 11 12 13 14 15 16 17 18 19 20 21 22 23 24 25 26 27 28

333
ASUS45 KTFX 211210
RWRMT
MONTANA REGIONAL WEATHER ROUNDUP
NATIONAL WEATHER SERVICE GREAT FALLS MT
600 AM MDT THU MAY 21 2015

NOTE: "FAIR" INDICATES FEW OR NO CLOUDS BELOW 12000 FEET WITH NO
SIGNIFICANT WEATHER AND/OR OBSTRUCTIONS TO VISIBILITY.

MTZ001>007-043-211300-
WEST OF THE DIVIDE

CITY           SKY/WX    TMP DP  RH WIND       PRES   REMARKS
KALISPELL      SUNNY     39  31  72 W3        29.99S
MISSOULA       CLEAR     42  31  64 W5        30.01R
BUTTE          MOCLDY    44  35  70 NE3       30.07S
MULLAN PASS    CLOUDY    47  29  49 SE10G18   30.02F
DEER LODGE       N/A     43  34  70 CALM      30.08F
EUREKA           N/A     37  30  75 CALM      30.02R
HAMILTON         N/A     48  41  76 N2        29.99S
LIBBY            N/A     39  36  87 CALM      30.00S
RONAN            N/A     42  35  76 NE2       30.02S
THOMPSON FALLS   N/A     45  40  82 S2        30.01S
$$

MTZ008-052>055-211300-
SOUTHWEST MONTANA

CITY           SKY/WX    TMP DP  RH WIND       PRES   REMARKS
BOZEMAN        CLOUDY    41  36  82 CALM      30.08S
DILLON         CLOUDY    45  41  86 NE3       30.05S
W YELLOWSTONE  CLOUDY    39  39 100 CALM      30.12S
THREE FORKS      N/A     43  43 100 CALM      30.06S
TWIN BRIDGES     N/A     47  38  71 N9        30.04S
$$

MTZ009-010-012-014-046-048-049-054-211300-
EAST SLOPES AND CENTRAL MONTANA

CITY           SKY/WX    TMP DP  RH WIND       PRES   REMARKS
CUT BANK       CLEAR     36  28  73 E6        30.08S WCI  31
GREAT FALLS    CLEAR     42  32  67 SE8       30.06S
MALMSTROM AFB  CLEAR     37  31  77 S5        30.07S
HELENA         PTCLDY    41  31  67 MISG      30.07S
CONRAD           N/A     28  26  92 NE1       30.09R
$$

MTZ011-013-016-021-045-047-050-051-211300-
NORTH CENTRAL MONTANA

CITY           SKY/WX    TMP DP  RH WIND       PRES   REMARKS
HAVRE          CLEAR     37  32  82 E12       30.11F WCI  29
LEWISTOWN      CLEAR     34  27  75 SE6       30.11S WCI  29
N BAR RANCH    FAIR      32  30  93 NW6       30.16S WCI  26
CHINOOK          N/A     37  32  81 E7        30.15R
FORT BENTON      N/A     45  34  65 CALM      30.09R
$$

MTZ017>020-022>027-061-062-211300-
NORTHEAST MONTANA

CITY           SKY/WX    TMP DP  RH WIND       PRES   REMARKS
GLASGOW        CLEAR     42  31  64 E10       30.19R
JORDAN           N/A     31  29  92 CALM      30.19S
SIDNEY         CLEAR     36  30  80 CALM      30.23R
WOLF POINT     CLEAR     35  31  85 CALM      30.22R
MALTA            N/A     40  29  65 CALM      30.13S
PLENTYWOOD       N/A     46  30  53 NW6       30.21S
POPLAR           N/A     36  34  93 CALM      30.23R
$$

MTZ028>42-056>058-211300-
SOUTHCENTRAL AND SOUTHEAST MONTANA

CITY           SKY/WX    TMP DP  RH WIND       PRES   REMARKS
BAKER          CLEAR     34  29  82 CALM      30.25R
BILLINGS       PTCLDY    38  33  82 N5        30.13S
LIVINGSTON     MOCLDY    37  33  85 CALM      30.11S
MILES CITY     CLEAR     39  31  72 SE6       30.21S
BIG TIMBER       N/A     39  36  87 S5        30.13S
EKALAKA          N/A     40  30  67 SE3       30.19S
FORSYTH          N/A     37  34  87 E5        30.19S
LAUREL           N/A     38  31  76 CALM      30.09F
ROUNDUP          N/A     38  30  73 CALM      30.05S
$$

REGIONAL REPORTS...DAKOTAS

CITY           SKY/WX    TMP DP  RH WIND       PRES   REMARKS
WILLISTON      CLEAR     39  33  79 SW3       30.21S
MINOT          CLEAR     44  34  67 CALM      30.16R
DICKINSON      CLEAR     37  29  72 W5        30.21R
BEACH          FAIR      36  32  87 CALM      30.25R
CROSBY         FAIR      48  32  53 W9        30.20S
WATFORD CITY   FAIR      37  32  81 SW5       30.20S
BISMARCK       CLEAR     46  33  60 W7        30.20R
GRAND FORKS    SUNNY     43  36  76 NW5       30.12R
FARGO          SUNNY     47  39  74 N8        30.11R
BUFFALO SD       N/A     40  32  73 W5        30.18R
RAPID CITY     CLEAR     32  28  85 CALM      30.26R
$$

REGIONAL REPORTS...WYOMING/IDAHO/WASHINGTON

CITY           SKY/WX    TMP DP  RH WIND       PRES   REMARKS
GILLETTE       CLEAR     32  30  92 S9        30.21S WCI  24
SHERIDAN       CLEAR     32  30  92 CALM      30.15S
BUFFALO WY     CLEAR     37  35  92 S12       30.16F WCI  29
CODY           CLOUDY    39  37  93 S3        30.12F
YELLOWSTONE LA   N/A     36  33  89 CALM      30.18R
IDAHO FALLS    CLOUDY    48  44  86 CALM      30.05S
SALMON         CLOUDY    52  43  71 CALM      30.00S
BOISE          MOCLDY    53  47  79 CALM      29.93R
SPOKANE        MOCLDY    56  46  69 CALM      29.89R
$$

REGIONAL REPORTS...ALBERTA

CITY           SKY/WX    TMP DP  RH WIND       PRES   REMARKS
EDMONTON       CLEAR     43  27  52 S6        30.04S
CALGARY        PTCLDY    41  28  60 S5        30.05F
MEDICINE HAT   CLEAR     41  28  60 E8        30.11S
$$

REGIONAL REPORTS...SASKATCHEWAN

CITY           SKY/WX    TMP DP  RH WIND       PRES   REMARKS
SWIFT CURRENT  CLEAR     41  27  56 S8        30.18S
REGINA         CLEAR     41  30  65 W3        30.19S
SASKATOON      CLEAR     43  32  65 SW7       30.19R
$$



USA.gov is the U.S. government's official web portal to all federal, state and local government web resources and services.